Location: Catstown
(52.4386°N, 7.2633°W)
Time: 23:16:35
(UTC+00:00)

ATLAS CENTAUR R/B - Pass Details

Date: 18 September 2020
Orbit: 479 x 667 km, 64.7° (Epoch: 12 October)

Event Time Altitude Azimuth Distance (km) Brightness Sun altitude
Rises 19:25:07 0° 255° (WSW) 2,658 6.0 -8.2°
Reaches altitude 10° 19:27:34 10° 268° (W) 1,742 5.3 -8.6°
Maximum altitude 19:30:56 28° 328° (NNW) 970 3.1 -9.1°
Drops below altitude 10° 19:34:13 10° 29° (NNE) 1,687 3.7 -9.6°
Sets 19:36:34 0° 42° (NE) 2,557 4.5 -9.9°
